{"data":{"norad_id":55945,"epoch":"2026-09-20T22:00:03.000096Z","epoch_age_seconds":70064,"freshness":"FRESH","line1":"1 55945U 23037AH  26263.91670139  .00025879  00000+0  19956-2 0  9990","line2":"2 55945  70.0034 152.1279 0003547 319.3459 116.1510 15.01524529  5772","mean_motion":15.01524529,"eccentricity":0.0003547,"inclination_deg":70.0034,"raan_deg":152.1279,"arg_perigee_deg":319.3459,"mean_anomaly_deg":116.151,"bstar":0.0019956,"rev_number":577,"period_min":95.902529208699,"perigee_km":559.7328565721,"apogee_km":564.6563278036,"semimajor_km":6940.3315921879,"source":"CELESTRAK","updated_at":"2026-09-21T09:00:33.344546Z"}}